Weather History for Philip, SD

Change the Weather History Date:

Friday, June 14, 2013

  Actual Average Record
Temperature  
Mean Temperature 72 °F 67 °F  
Max Temperature 86 °F 80 °F 102 °F (1959)
Min Temperature 58 °F 53 °F 36 °F (1969)
Degree Days  
Heating Degree Days 0 2  
Month to date heating degree days 63 43  
Since 1 June heating degree days 63 43  
Since 1 July heating degree days 7085 7177  
Cooling Degree Days 7 4  
Month to date cooling degree days 19 37  
Year to date cooling degree days 40 64  
Since 1 June cooling degree days 19 37  
Growing Degree Days 22 (Base 50)    
Moisture  
Dew Point 55 °F    
Average Humidity 56    
Maximum Humidity 84    
Minimum Humidity 27    
Precipitation  
Precipitation T in 0.10 in 1.33 in (1991)
Month to date precipitation 0.21 1.37  
Year to date precipitation 5.77 8.29  
Sea Level Pressure  
Sea Level Pressure 29.79 in    
Wind  
Wind Speed 11 mph (North)    
Max Wind Speed 21 mph    
Max Gust Speed 26 mph    
Visibility 10 miles    
Events Rain    
T = Trace of Precipitation, MM = Missing Value Source: NWS Daily Summary

Daily Weather History Graph

Daily Weather History Graph

Search for Another Location

Airport:

Trip Planner

Search our weather history database for the weather conditions in past years. The results will help you decide how hot, cold, wet, or windy it might be!

Date:

Astronomy

Jun. 14, 2013 Rise Set
Actual Time 5:02 AM MDT 8:30 PM MDT
Civil Twilight 4:26 AM MDT 9:07 PM MDT
Nautical Twilight 3:38 AM MDT 9:55 PM MDT
Astronomical Twilight 2:38 AM MDT 10:55 PM MDT
Moon 10:50 AM MDT (6/14) 11:56 PM MDT (6/14)
Length of Visible Light 16h 40m
Length of Day
15h 28m
Waxing Crescent, 31% of the Moon is Illuminated
Jun 14
Waxing Crescent
Jun 16
First Quarter
Jun 23
Full
Jun 29
Last Quarter
Jul 8
New

Hourly Weather History & Observations

Time (MDT) Temp. Heat Index Dew Point Humidity Pressure Visibility Wind Dir Wind Speed Gust Speed Precip Events Conditions
12:55 AM 64.9 °F - 55.0 °F 70% 29.78 in 10.0 mi ESE 4.6 mph - N/A   Clear
1:55 AM - - - N/A% - 10.0 mi SE 10.4 mph - N/A   Unknown
2:55 AM 62.1 °F - 54.0 °F 75% 29.70 in 10.0 mi ESE 11.5 mph 19.6 mph N/A   Clear
3:55 AM 62.1 °F - 55.0 °F 78% 29.75 in 10.0 mi NW 9.2 mph - 0.00 in Rain Light Rain
4:55 AM 59.0 °F - 55.0 °F 87% 29.73 in 10.0 mi ENE 8.1 mph - 0.00 in   Clear
5:55 AM 61.0 °F - 55.0 °F 81% 29.73 in 10.0 mi ESE 10.4 mph - N/A   Clear
6:55 AM 63.0 °F - 57.0 °F 81% 29.74 in 10.0 mi SE 10.4 mph - N/A   Clear
7:55 AM 68.0 °F - 59.0 °F 73% 29.77 in 10.0 mi SSW 5.8 mph - N/A   Clear
8:55 AM 70.0 °F - 59.0 °F 68% 29.77 in 10.0 mi WSW 9.2 mph - N/A   Partly Cloudy
9:55 AM 73.9 °F - 59.0 °F 59% 29.75 in 10.0 mi NNW 16.1 mph 24.2 mph N/A   Clear
10:55 AM 77.0 °F - 61.0 °F 58% 29.77 in 10.0 mi WNW 11.5 mph 16.1 mph N/A   Clear
11:55 AM 79.0 °F - 61.0 °F 54% 29.78 in 10.0 mi NW 21.9 mph 26.5 mph N/A   Partly Cloudy
12:55 PM 81.0 °F 81.7 °F 61.0 °F 50% 29.80 in 10.0 mi NW 13.8 mph 23.0 mph N/A   Scattered Clouds
1:55 PM 82.0 °F 82.7 °F 61.0 °F 49% 29.80 in 10.0 mi NNW 15.0 mph 23.0 mph N/A   Scattered Clouds
2:55 PM 84.0 °F 83.8 °F 59.0 °F 43% 29.80 in 10.0 mi NNW 12.7 mph 23.0 mph N/A   Clear
3:55 PM 84.9 °F 83.6 °F 55.0 °F 36% 29.79 in 10.0 mi NNW 8.1 mph 18.4 mph N/A   Clear
4:55 PM 84.9 °F - 48.9 °F 29% 29.80 in 10.0 mi NNW 10.4 mph 20.7 mph N/A   Clear
5:55 PM 84.0 °F - 46.0 °F 26% 29.78 in 10.0 mi North 12.7 mph - N/A   Clear
6:55 PM 81.0 °F - 46.9 °F 30% 29.79 in 10.0 mi NNE 10.4 mph - N/A   Clear
7:55 PM 73.9 °F - 48.0 °F 40% 29.81 in 10.0 mi NNE 10.4 mph - N/A   Clear
8:55 PM 66.9 °F - 48.0 °F 51% 29.87 in 10.0 mi North 10.4 mph - N/A   Clear
9:55 PM 64.9 °F - 51.1 °F 61% 29.90 in 10.0 mi North 11.5 mph - N/A   Clear
10:55 PM 62.1 °F - 51.1 °F 67% 29.91 in 10.0 mi North 10.4 mph - N/A   Clear
11:55 PM 63.0 °F - 48.0 °F 58% 29.95 in 10.0 mi North 4.6 mph - N/A   Clear